Content
SEND FEEDBACK

Daily
Averages
Monthly
Summary
Canada

DRUMHELLER, ALBERTA


Home > North America > Canada > Alberta
Elevation: 2254 feet     Latitude: 51 28N     Longitude: 112 43W

WEATHER
 
SELECT A DAY
Number of Records: 139,632;   Date Range: 1/1/95 - 10/1/14
 
SHARE

PRINT THIS DATA

[ ← Previous Day ]
WEATHER ALMANAC - AUGUST 25, 2013
[ Next Day → ]
[ °C ]   °F
Weather ElementAverageHighLow
Temperature68.2 °F83.3 °F (4:00 pm)51.3 °F (4:00 am)
Dewpoint48.1 °F52.3 °F (11:00 pm)45.5 °F (5:00 pm)
Humidity51.2 %81 % (4:00 am)20 % (6:00 pm)
Barometer29.79 in29.83 in (10:00 pm)29.76 in (2:00 am)
Wind Speed4.9 mph9.2 mph (12:00 pm)
Weather ElementAverage
Wind DirectionSSW (190.7 °)

Weather ElementTotal
Precipitation---
Cooling Degree Days2.3 (Base 65)
Growing Degree Days17.3 (Base 50)
Averaged from 27 records on August 25, 2013
WEATHER CONDITIONS BREAKOUT
WIND DIRECTION BREAKOUT
WEATHER BY HOUR - AUGUST 25, 2013
[ °C ]   °F
Local TimeTemperatureDewpointHumidityBarometerVisibilityWind DirectionWind SpeedGust SpeedPrecipitationEventsConditions
12:00 AM58.6 °F46.0 °F63 %29.77 inSE (140°)4.6 mph
1:00 AM56.8 °F45.9 °F67 %29.78 inSouth (170°)4.6 mph
2:00 AM53.8 °F46.0 °F75 %29.76 inSSE (150°)4.6 mph
3:00 AM52.3 °F46.2 °F80 %29.77 inSSE (160°)4.6 mph
4:00 AM51.3 °F45.7 °F81 %29.79 inSouth (170°)4.6 mph
5:00 AM54.7 °F46.0 °F73 %29.80 inSSE (150°)5.8 mph
6:00 AM57.0 °F47.7 °F71 %29.76 inSouth (170°)6.9 mph
6:00 AM57.0 °F48.0 °F62 %29.76 inSouth (170°)6.9 mph
7:00 AM58.3 °F50.0 °F74 %29.76 inSSE (150°)3.5 mph
8:00 AM59.7 °F48.9 °F67 %29.77 inSW (230°)2.3 mph
9:00 AM63.5 °F51.6 °F65 %29.79 inSE (140°)4.6 mph
10:00 AM73.8 °F50.4 °F44 %29.78 inSouth (170°)3.5 mph
11:00 AM79.2 °F48.2 °F34 %29.77 inWSW (240°)3.5 mph
12:00 PM77.2 °F48.4 °F36 %29.80 inWest (270°)9.2 mph
12:00 PM77.0 °F48.0 °F26 %29.80 inWest (270°)9.2 mph
1:00 PM76.6 °F50.2 °F39 %29.80 inWest (280°)6.9 mph
2:00 PM77.9 °F49.5 °F37 %29.80 inWNW (300°)6.9 mph
3:00 PM82.6 °F46.8 °F28 %29.79 inNorth (350°)5.8 mph
4:00 PM83.3 °F47.8 °F29 %29.80 inNNW (340°)6.9 mph
5:00 PM81.5 °F45.5 °F28 %29.79 inNW (320°)5.8 mph
6:00 PM81.1 °F46.9 °F30 %29.78 inNorth (360°)3.5 mph
6:00 PM81.0 °F47.0 °F20 %29.78 inNorth3.5 mph
7:00 PM79.5 °F49.1 °F34 %29.78 inNorth (10°)3.5 mph
8:00 PM73.0 °F48.2 °F41 %29.79 inENE (60°)6.9 mph
9:00 PM68.0 °F48.9 °F50 %29.81 inNorth (350°)2.3 mph
10:00 PM64.8 °F48.6 °F56 %29.83 inNNE (30°)1.2 mph
11:00 PM61.2 °F52.3 °F73 %29.83 inCalm
Hourly data recorded from CWDZ, located miles away from Drumheller, Alberta







STORIES FROM OUR PARTNERS